EA1AHP-1 Weather Reports


Display with metric or nautical units.
time (UTC)temp
F
wind
direction
speed
MPH
gust
MPH
rain 1hr
in
rain 24hr
in
rain mn
in
humidity
%
barometer
mb
20260506205638 62 0.0 0.0 0.00 0.00 0.00 11 919.0
20260506204139 62 0.0 0.0 0.00 0.00 0.00 11 919.0
20260506202638 62 0.0 0.0 0.00 0.00 0.00 11 919.0
20260506201138 62 0.0 0.0 0.00 0.00 0.00 11 919.0
20260506195638 62 0.0 0.0 0.00 0.00 0.00 11 919.0
20260506194138 62 0.0 0.0 0.00 0.00 0.00 11 919.0
20260506192638 62 0.0 0.0 0.00 0.00 0.00 11 919.0
20260506191138 62 0.0 0.0 0.00 0.00 0.00 11 919.0
20260506185639 64 0.0 0.0 0.00 0.00 0.00 11 919.0
20260506184139 63 0.0 0.0 0.00 0.00 0.00 11 919.0
20260506182638 64 0.0 0.0 0.00 0.00 0.00 11 919.0
20260506181138 64 0.0 0.0 0.00 0.00 0.00 11 919.0
20260506175639 64 0.0 0.0 0.00 0.00 0.00 10 919.0
20260506174138 64 0.0 0.0 0.00 0.00 0.00 10 919.0
20260506172639 64 0.0 0.0 0.00 0.00 0.00 10 919.0
20260506171139 64 0.0 0.0 0.00 0.00 0.00 10 919.0
20260506165639 66 0.0 0.0 0.00 0.00 0.00 10 919.0
20260506164138 66 0.0 0.0 0.00 0.00 0.00 10 919.0
20260506161139 66 0.0 0.0 0.00 0.00 0.00 10 919.0
20260506155638 65 0.0 0.0 0.00 0.00 0.00 10 919.0
20260506154139 65 0.0 0.0 0.00 0.00 0.00 10 919.0
20260506152639 64 0.0 0.0 0.00 0.00 0.00 10 919.0
20260506151139 64 0.0 0.0 0.00 0.00 0.00 10 919.0
20260506145639 64 0.0 0.0 0.00 0.00 0.00 10 920.0
20260506144139 64 0.0 0.0 0.00 0.00 0.00 11 920.0
20260506142639 63 0.0 0.0 0.00 0.00 0.00 11 920.0
20260506141139 64 0.0 0.0 0.00 0.00 0.00 11 920.0
20260506135639 64 0.0 0.0 0.00 0.00 0.00 10 920.0
20260506134140 64 0.0 0.0 0.00 0.00 0.00 11 920.0
20260506132639 63 0.0 0.0 0.00 0.00 0.00 11 920.0
20260506131139 63 0.0 0.0 0.00 0.00 0.00 11 921.0
20260506125639 62 0.0 0.0 0.00 0.00 0.00 11 921.0
20260506124139 62 0.0 0.0 0.00 0.00 0.00 11 921.0
20260506122639 61 0.0 0.0 0.00 0.00 0.00 11 921.0
20260506121140 61 0.0 0.0 0.00 0.00 0.00 11 921.0
20260506115640 61 0.0 0.0 0.00 0.00 0.00 11 921.0
20260506114140 59 0.0 0.0 0.00 0.00 0.00 12 921.0
20260506112640 60 0.0 0.0 0.00 0.00 0.00 12 921.0
20260506111140 60 0.0 0.0 0.00 0.00 0.00 12 921.0
20260506105640 59 0.0 0.0 0.00 0.00 0.00 12 921.0
20260506104139 58 0.0 0.0 0.00 0.00 0.00 12 921.0
20260506102640 57 0.0 0.0 0.00 0.00 0.00 12 921.0
20260506101140 57 0.0 0.0 0.00 0.00 0.00 12 922.0
20260506095639 56 0.0 0.0 0.00 0.00 0.00 12 922.0
20260506094139 56 0.0 0.0 0.00 0.00 0.00 12 922.0
20260506092640 55 0.0 0.0 0.00 0.00 0.00 12 922.0
20260506091140 54 0.0 0.0 0.00 0.00 0.00 13 922.0
20260506085640 54 0.0 0.0 0.00 0.00 0.00 15 922.0
20260506084139 53 0.0 0.0 0.00 0.00 0.00 15 922.0
20260506082640 53 0.0 0.0 0.00 0.00 0.00 16 922.0
20260506081140 53 0.0 0.0 0.00 0.00 0.00 16 922.0
20260506072640 52 0.0 0.0 0.00 0.00 0.00 16 922.0
20260506071140 53 0.0 0.0 0.00 0.00 0.00 16 922.0
20260506061140 50 0.0 0.0 0.00 0.00 0.00 21 921.0
20260506051140 49 0.0 0.0 0.00 0.00 0.00 19 921.0
20260506044140 48 0.0 0.0 0.00 0.00 0.00 16 921.0
20260506042641 48 0.0 0.0 0.00 0.00 0.00 16 922.0
20260506041141 49 0.0 0.0 0.00 0.00 0.00 16 922.0
20260506035641 49 0.0 0.0 0.00 0.00 0.00 16 922.0
20260506034140 49 0.0 0.0 0.00 0.00 0.00 16 922.0
20260506032641 49 0.0 0.0 0.00 0.00 0.00 16 922.0
20260506031140 49 0.0 0.0 0.00 0.00 0.00 16 922.0
20260506025641 50 0.0 0.0 0.00 0.00 0.00 16 922.0
20260506024141 50 0.0 0.0 0.00 0.00 0.00 16 922.0
20260506022641 50 0.0 0.0 0.00 0.00 0.00 16 922.0
20260506021141 50 0.0 0.0 0.00 0.00 0.00 14 922.0
20260506015641 50 0.0 0.0 0.00 0.00 0.00 14 922.0
20260506014141 51 0.0 0.0 0.00 0.00 0.00 14 922.0
20260506012641 51 0.0 0.0 0.00 0.00 0.00 14 922.0
20260506011141 51 0.0 0.0 0.00 0.00 0.00 14 922.0
20260506005640 51 0.0 0.0 0.00 0.00 0.00 13 923.0
20260506004141 52 0.0 0.0 0.00 0.00 0.00 13 923.0
20260506002641 52 0.0 0.0 0.00 0.00 0.00 13 923.0
20260506001141 52 0.0 0.0 0.00 0.00 0.00 13 923.0
20260505234141 53 0.0 0.0 0.00 0.00 0.00 13 923.0
20260505232641 53 0.0 0.0 0.00 0.00 0.00 13 923.0
20260505231141 53 0.0 0.0 0.00 0.00 0.00 13 923.0
20260505225641 54 0.0 0.0 0.00 0.00 0.00 13 923.0
20260505224141 54 0.0 0.0 0.00 0.00 0.00 13 923.0
20260505222641 54 0.0 0.0 0.00 0.00 0.00 13 923.0
20260505221141 54 0.0 0.0 0.00 0.19 0.00 13 923.0
20260505215641 55 0.0 0.0 0.00 0.19 0.00 12 923.0
20260505214141 56 0.0 0.0 0.00 0.19 0.00 12 923.0
20260505212642 56 0.0 0.0 0.00 0.19 0.00 12 923.0
20260505211141 56 0.0 0.0 0.00 0.19 0.00 12 923.0